Location: Coxheath Shoals
(50.8167°N, 0.4333°E)
Time: 00:23:04
(UTC+00:00)

Daily predictions for brighter satellites

Satellite Brightness Start Highest point End
(mag) Time Altitude Azimuth Time Altitude Azimuth Time Altitude Azimuth
USA 234 4.1 03:34:22 10° ENE 03:38:43 45° ENE 03:38:43 45° ENE
Cosmos 2360 Rocket 3.9 04:05:48 25° SE 04:05:48 25° SE 04:08:01 10° SE
Cosmos 2219 Rocket 3.0 04:16:19 49° ESE 04:16:19 49° ESE 04:20:37 10° SE
ATLAS 3B R/B 3.6 04:15:05 43° N 04:16:50 50° NNE 04:24:13 10° ESE
Cosmos 2237 Rocket 4.3 04:17:07 17° NNE 04:18:40 19° NNE 04:22:32 10° ENE
Cosmos 2333 Rocket 4.2 04:35:11 16° S 04:35:11 16° S 04:36:15 10° S
Cosmos 2322 Rocket 3.7 04:34:01 26° S 04:34:01 26° S 04:36:22 10° SSE
Cosmos 2221 4.4 04:32:30 25° ENE 04:32:59 26° ENE 04:36:28 10° SE
Cosmos 1627 Rocket 4.4 04:35:53 45° S 04:37:56 82° E 04:44:09 10° NNE
ISS -0.6 04:41:19 13° SE 04:41:19 13° SE 04:42:30 10° ESE
Cosmos 2026 Rocket 3.8 04:46:56 72° SSW 04:47:36 84° W 04:53:49 10° N
SeaSat 1 3.3 04:46:54 10° NNE 04:50:06 41° NNE 04:50:06 41° NNE
Cosmos 2322 4.4 04:50:11 36° N 04:52:05 51° NE 04:57:36 10° SE
Cosmos 192 4.4 04:56:32 75° SE 04:56:32 75° SE 05:01:01 10° SSE
ATLAS 2AS CENTAUR R/B 3.1 04:55:30 11° SSW 05:02:08 61° SE 05:08:53 10° NE
Cosmos 1125 Rocket 3.5 05:02:54 61° N 05:03:49 81° ENE 05:09:02 10° SSE
Cosmos 2285 Rocket 3.9 05:05:08 59° W 05:05:43 62° WSW 05:12:01 10° S
Cosmos 2082 Rocket 3.9 05:08:06 18° N 05:08:06 18° N 05:10:20 10° NNE
SJ-11-01 4.4 05:01:36 10° NNE 05:05:30 62° N 05:05:30 62° N
COSMO-SKYMED 1 2.7 05:02:35 10° SSE 05:06:39 64° ENE 05:06:52 63° NE
Meteor 2-20 Rocket 4.2 05:09:56 62° W 05:09:58 62° W 05:15:36 10° S
BREEZE-M DEB (TANK) 3.4 05:11:12 48° ESE 05:11:12 48° ESE 05:15:16 10° E
Meteor 2-6 Rocket 4.2 05:14:31 26° NNW 05:18:06 77° W 05:23:58 10° S
COSMOS 2406 4.4 05:22:07 26° NNW 05:22:07 26° NNW 05:25:38 10° NNE
COSMOS 2428 2.9 05:18:02 30° NNW 05:20:57 69° ENE 05:26:38 10° SE
Cosmos 1553 Rocket 3.9 05:14:35 10° NNW 05:21:00 75° W 05:27:23 10° S
S3M 4.4 05:17:06 10° N 05:23:13 61° ENE 05:29:15 10° SSE
USA 234 3.4 05:17:26 10° ENE 05:23:49 57° N 05:26:03 39° WNW
Cosmos 44 4.2 05:20:06 10° SSW 05:24:30 46° ESE 05:29:13 10° NE
Cosmos 1092 Rocket 4.0 05:18:53 10° SSW 05:24:58 54° WNW 05:31:03 10° N
CZ-4 R/B 3.6 05:23:25 10° NNE 05:28:05 89° ESE 05:32:42 10° SSW
SKYMED 2 4.0 05:26:30 10° S 05:29:56 45° SW 05:29:56 45° SW
IRS-1D 3.4 05:25:48 10° NNE 05:30:53 78° WNW 05:36:02 10° SSW
Cosmos 158 Rocket 4.0 05:33:47 41° WSW 05:35:13 54° WNW 05:40:18 10° NNE
NOAA 12 3.9 05:30:55 10° NNE 05:36:13 77° WNW 05:41:26 10° SSW
Helios 1A Rocket 2.7 05:34:40 10° S 05:37:24 54° SSW 05:37:24 54° SSW
Cosmos 2151 2.8 05:36:26 10° S 05:40:32 84° E 05:44:41 10° NNE
Cosmos 1842 3.3 05:40:06 31° N 05:41:28 59° ENE 05:44:44 10° SSE
Cosmos 1758 Rocket 3.5 05:37:27 10° SSW 05:41:47 60° WNW 05:46:07 10° N
USA 229 3.9 05:38:19 28° NW 05:42:45 80° SW 05:50:53 10° SE
USA 229 DEB 3.9 05:38:24 28° NW 05:42:50 80° SW 05:50:58 10° SE
ATLAS CENTAUR R/B 4.5 05:42:38 10° SE 05:43:31 11° ESE 05:44:25 10° E
Cosmos 1484 Rocket 3.1 05:42:22 10° NNE 05:45:42 54° E 05:48:59 10° S
Cosmos 2360 Rocket 3.7 05:47:36 18° SW 05:47:36 18° SW 05:49:52 10° SSW
SL-16 R/B 4.1 05:41:28 10° NNW 05:45:53 23° NE 05:50:17 10° E
Cosmos 2297 Rocket 4.2 05:42:00 10° SSE 05:46:51 30° ESE 05:51:43 10° NE
Cosmos 1707 2.0 05:47:20 73° SW 05:47:20 73° SW 05:50:17 10° S
Cosmos 2266 Rocket 4.1 05:42:11 10° S 05:48:32 81° E 05:54:49 10° NNE
Cosmos 1814 Rocket 4.5 05:48:11 35° W 05:49:11 39° NW 05:54:12 10° NNE
Cosmos 1980 4.2 05:47:24 15° NNW 05:52:03 58° NE 05:57:38 10° SE
CZ-2C R/B 4.4 05:51:59 10° N 05:52:44 13° NNW 05:52:44 13° NNW
Cosmos 2219 Rocket 3.1 05:58:03 27° W 05:58:37 27° WSW 06:03:16 10° SSW
Cosmos 1417 Rocket 4.4 05:53:33 10° NNW 05:59:39 68° W 06:05:47 10° S
DMSP B5D1-3 4.4 05:55:36 10° S 06:00:41 73° WSW 06:05:49 10° NNW
Meteor 1-20 Rocket 4.1 05:55:07 10° S 06:00:42 89° ESE 06:06:15 10° NNE
Cosmos 1626 Rocket 4.1 05:57:16 10° SW 06:01:17 34° WNW 06:05:18 10° N
Cosmos 773 Rocket 4.3 05:57:39 10° SSW 06:02:43 69° ESE 06:07:52 10° NNE
Cosmos 2237 Rocket 2.5 05:58:55 14° NNW 06:03:51 64° ENE 06:09:26 10° SE
Cosmos 836 Rocket 4.5 05:59:26 10° SSW 06:04:37 86° ESE 06:09:52 10° NNE
IGS 5A 3.4 06:00:54 10° NNE 06:04:56 83° ESE 06:08:57 10° SSW
ATLAS 3B R/B 3.0 06:02:20 20° NW 06:08:01 66° SW 06:15:22 10° SSE
Meteor 2-4 Rocket 4.0 06:02:34 10° N 06:08:02 66° ENE 06:13:35 10° SSE
CBERS-1 4.2 06:03:11 10° NNE 06:08:19 73° ESE 06:13:23 10° S
Cosmos 2221 3.0 06:08:53 28° WNW 06:10:05 34° W 06:13:51 10° SSW
KORONAS-FOTON 3.9 06:10:09 35° WNW 06:10:45 38° W 06:13:54 10° SSW
Cosmos 1437 Rocket 3.2 06:12:20 30° W 06:12:22 30° W 06:15:28 10° SSW
Cosmos 2150 Rocket 4.0 06:09:48 14° NNW 06:14:32 72° WSW 06:19:52 10° SSE
ISS -3.1 06:14:17 15° SW 06:16:57 53° SSE 06:20:16 10° E
ATLAS 5 CENTAUR R/B 3.3 06:15:13 12° NNW 06:17:22 18° NNE 06:20:23 10° ENE
Meteor 1-27 Rocket 3.7 06:11:48 10° NNW 06:17:37 76° W 06:23:16 10° S
Cosmos 1818 3.6 06:13:56 18° NW 06:18:09 84° NE 06:23:36 10° SE
Cosmos 1570 Rocket 4.0 06:15:07 10° SW 06:20:25 67° WNW 06:25:46 10° NNE
NOSS 0 Rocket 4.0 06:16:17 15° NW 06:21:33 64° WSW 06:27:41 10° SSE
BREEZE-M DEB (TANK) 4.2 06:19:39 14° WSW 06:22:05 25° SSW 06:28:10 10° SE
Cosmos 1842 Rocket 3.7 06:20:51 10° N 06:25:11 74° ENE 06:29:31 10° SSE
SeaSat 1 3.8 06:25:08 10° N 06:28:29 19° NW 06:29:44 17° NW
Cosmos 1805 4.0 06:29:32 10° S 06:32:45 46° E 06:36:00 10° NNE
USA 290 2.1 06:31:53 10° SSW 06:35:04 67° WNW 06:38:19 10° NNE
Meteor 1-5 Rocket 4.1 06:30:11 10° S 06:35:32 88° E 06:40:52 10° NNE
Cosmos 2322 4.4 06:32:08 15° NW 06:36:03 33° WSW 06:41:04 10° SSW
Cosmos 1238 Rocket 2.9 06:35:28 20° NW 06:36:50 29° W 06:39:31 10° SSW
SJ-12 4.3 06:33:08 10° NNE 06:36:56 63° ESE 06:40:43 10° S
NOSS 8 (F) 4.5 06:34:20 10° SW 06:38:33 82° NW 06:41:50 10° NE
Cosmos 2227 Rocket 4.1 06:33:57 10° S 06:38:57 34° ESE 06:43:58 10° NE
ARIANE 6 FM1 Upper Stage 2.5 06:35:02 10° SW 06:39:04 77° NW 06:43:03 10° NE
CORIOLIS 4.2 06:34:31 10° NNE 06:39:58 89° ESE 06:45:24 10° SSW
Cosmos 1602 Rocket 4.5 06:38:08 10° SW 06:41:54 26° WNW 06:45:40 10° N
COSMO-SKYMED 1 4.1 06:39:57 10° SW 06:42:23 15° W 06:43:11 15° WNW
Meteor 1-18 Rocket 4.5 06:37:08 10° N 06:42:47 76° ENE 06:48:30 10° SSE
Cosmos 2344 3.5 06:36:25 10° SW 06:44:06 86° SE 06:51:25 10° NE
Thor Agena Rocket 3.4 06:41:53 10° NNE 06:46:56 79° WNW 06:51:57 10° SSW
BREEZE-M DEB (TANK) 2.7 06:47:25 14° W 06:49:23 55° SSW 06:51:44 10° ESE
USA 276 4.3 06:48:05 10° SSW 06:50:06 20° SSE 06:51:59 10° ESE
BREEZE-M DEB (TANK) 3.8 06:48:19 12° W 06:51:01 59° SSW 06:58:55 10° ESE
Cosmos 2082 Rocket 4.2 06:52:05 10° NNW 06:52:18 10° NNW 06:52:30 10° N
ATLAS 2AS CENTAUR R/B 3.0 06:46:35 10° WSW 06:53:18 48° NNW 06:59:53 10° NE
Resurs 01 Rocket 4.5 06:50:59 10° NE 06:53:53 17° E 06:56:45 10° SE
BREEZE M DEB (TANK) 2.7 06:51:13 10° WSW 06:53:55 69° SSE 07:00:28 10° E
Cosmos 1076 Rocket 3.8 06:56:11 10° SSW 07:00:15 45° WNW 07:04:23 10° N
SMAP 3.1 06:56:16 10° N 07:00:51 57° WNW 07:05:24 10° SSW
YAOGAN 11 4.2 06:56:42 10° SSE 07:00:59 81° ENE 07:05:16 10° NNW
Landsat 7 3.8 06:59:10 10° N 07:03:47 63° WNW 07:08:22 10° SSW
COSMOS 2428 3.9 07:00:14 10° NW 07:04:40 24° WSW 07:09:05 10° SSW
Cosmos 44 3.8 07:01:17 10° WSW 07:05:44 39° NW 07:10:28 10° NNE
USA 234 3.6 06:59:58 10° E 07:06:22 56° N 07:12:44 10° WNW
Cosmos 2208 Rocket 4.4 07:02:17 10° SW 07:07:11 41° WNW 07:12:05 10° NNE
Cosmos 1953 Rocket 3.9 07:03:54 10° SW 07:08:03 43° WNW 07:12:16 10° N
SAR-Lupe-4 3.6 07:06:25 10° N 07:09:57 57° WNW 07:13:26 10° SSW
ATLAS CENTAUR R/B 0.7 07:14:23 10° SW 07:17:43 84° NW 07:21:03 10° NE
Cosmos 1484 Rocket 4.2 07:16:25 10° NNW 07:18:11 14° WNW 07:19:57 10° W
YAOGAN 1 3.1 07:17:10 10° NNE 07:21:24 63° ESE 07:25:37 10° S
